Location: Unspecified
(51.5147°N, 7.4673°E)
Time: 03:30:36
(UTC+01:00)

Vanguard 1 Rocket - Pass Details

Date: 25 February 2026
Orbit: 653 x 4214 km, 34.3° (Epoch: 12 March)

Event Time Altitude Azimuth Distance (km) Brightness Sun altitude
Rises 11:46:23 0° 208° (SSW) 3,546 11.1 28.3°
Reaches altitude 10° 11:49:26 10° 188° (S) 2,944 11.3 28.4°
Maximum altitude 11:54:08 18° 147° (SSE) 2,933 11.6 28.6°
Drops below altitude 10° 12:00:45 10° 109° (ESE) 4,377 11.4 28.8°
Sets 12:06:55 0° 95° (E) 6,140 11.8 29.0°
